Augusta, ME

12:11 AM EST on December 03, 2016 (GMT -0500)
Augusta State

Weather History for KAUG - April, 2014

Change the Weather History Date:

Tuesday, April 1, 2014

  Actual Average Record
Temperature  
Mean Temperature 39 °F 38 °F  
Max Temperature 47 °F 46 °F 66 °F (1986)
Min Temperature 30 °F 29 °F 12 °F (1969)
Degree Days  
Heating Degree Days 26 27  
Month to date heating degree days 26 27  
Since 1 July heating degree days 6780 6396  
Cooling Degree Days 0 0  
Month to date cooling degree days 0 0  
Year to date cooling degree days 0 0  
Moisture  
Dew Point 16 °F    
Average Humidity 48    
Maximum Humidity 78    
Minimum Humidity 18    
Precipitation  
Precipitation 0.00 in 0.12 in 2.25 in (1976)
Month to date precipitation 0.00 0.12  
Year to date precipitation 7.93 8.53  
Sea Level Pressure  
Sea Level Pressure 30.06 in    
Wind  
Wind Speed 13 mph (North)    
Max Wind Speed 24 mph    
Max Gust Speed 31 mph    
Visibility 10 miles    
Events      
T = Trace of Precipitation, MM = Missing Value Source: NWS Daily Summary

Daily Weather History Graph

Daily Weather History Graph

Search for Another Location

Airport or City:

Trip Planner

Search our weather history database for the weather conditions in past years. The results will help you decide how hot, cold, wet, or windy it might be!

Date:

Astronomy

Apr. 01, 2014 Rise Set
Actual Time 6:20 AM EDT 7:06 PM EDT
Civil Twilight 5:51 AM EDT 7:35 PM EDT
Nautical Twilight 5:16 AM EDT 8:10 PM EDT
Astronomical Twilight 4:40 AM EDT 8:47 PM EDT
Moon 7:16 AM EDT (4/1) 9:31 PM EDT (4/1)
Length of Visible Light 13h 44m
Length of Day
12h 46m
Waxing Crescent, 4% of the Moon is Illuminated
Apr 1
Waxing Crescent
Apr 7
First Quarter
Apr 15
Full
Apr 22
Last Quarter
Apr 29
New

Hourly Weather History & Observations

Time (EDT) Temp. Windchill Dew Point Humidity Pressure Visibility Wind Dir Wind Speed Gust Speed Precip Events Conditions
12:07 AM 33.1 °F 21.9 °F 26.1 °F 75% 30.02 in 10.0 mi North 18.4 mph 27.6 mph N/A   Overcast
12:22 AM 33.1 °F 21.9 °F 26.1 °F 75% 30.01 in 10.0 mi North 18.4 mph - N/A   Overcast
12:53 AM 33.1 °F 21.9 °F 26.1 °F 75% 30.03 in 10.0 mi North 18.4 mph 25.3 mph N/A   Overcast
1:53 AM 33.1 °F 21.5 °F 25.0 °F 72% 30.03 in 10.0 mi North 19.6 mph 31.1 mph N/A   Overcast
2:53 AM 32.0 °F 20.5 °F 24.1 °F 73% 30.02 in 10.0 mi North 18.4 mph 26.5 mph N/A   Partly Cloudy
3:53 AM 30.9 °F 19.8 °F 24.1 °F 76% 30.02 in 10.0 mi North 16.1 mph 26.5 mph N/A   Clear
4:53 AM 30.9 °F 18.4 °F 24.1 °F 76% 30.03 in 10.0 mi North 20.7 mph 28.8 mph N/A   Overcast
5:53 AM 30.9 °F 19.1 °F 23.0 °F 72% 30.04 in 10.0 mi North 18.4 mph - N/A   Overcast
6:53 AM 30.0 °F 17.9 °F 23.0 °F 75% 30.07 in 10.0 mi North 18.4 mph - N/A   Scattered Clouds
7:53 AM 30.9 °F 18.4 °F 19.9 °F 64% 30.09 in 10.0 mi North 20.7 mph 26.5 mph N/A   Clear
8:53 AM 30.0 °F 18.7 °F 17.1 °F 59% 30.09 in 10.0 mi North 16.1 mph 23.0 mph N/A   Clear
9:53 AM 34.0 °F 23.8 °F 18.0 °F 52% 30.09 in 10.0 mi North 16.1 mph 24.2 mph N/A   Clear
10:53 AM 36.0 °F 26.3 °F 19.0 °F 50% 30.08 in 10.0 mi North 16.1 mph 28.8 mph N/A   Clear
11:53 AM 39.9 °F 30.8 °F 19.9 °F 45% 30.07 in 10.0 mi North 18.4 mph 24.2 mph N/A   Clear
12:53 PM 41.0 °F 32.8 °F 19.0 °F 41% 30.07 in 10.0 mi NNE 16.1 mph 24.2 mph N/A   Clear
1:53 PM 42.1 °F 34.5 °F 19.0 °F 40% 30.06 in 10.0 mi NNE 15.0 mph 20.7 mph N/A   Clear
2:53 PM 44.1 °F 36.8 °F 15.1 °F 31% 30.06 in 10.0 mi North 16.1 mph 25.3 mph N/A   Clear
3:53 PM 46.0 °F 40.2 °F 10.9 °F 24% 30.04 in 10.0 mi North 12.7 mph 21.9 mph N/A   Clear
4:53 PM 46.0 °F 40.6 °F 7.0 °F 20% 30.03 in 10.0 mi NNE 11.5 mph - N/A   Clear
5:53 PM 46.0 °F 40.6 °F 7.0 °F 20% 30.04 in 10.0 mi North 11.5 mph - N/A   Clear
6:53 PM 45.0 °F 43.5 °F 5.0 °F 19% 30.06 in 10.0 mi North 3.5 mph - N/A   Clear
7:53 PM 44.1 °F - 3.0 °F 18% 30.09 in 10.0 mi Calm Calm - N/A   Clear
8:53 PM 39.9 °F 35.8 °F 5.0 °F 23% 30.10 in 10.0 mi North 5.8 mph - N/A   Clear
9:53 PM 37.9 °F 32.7 °F 7.0 °F 28% 30.10 in 10.0 mi North 6.9 mph - N/A   Clear
10:53 PM 36.0 °F 31.1 °F 7.0 °F 30% 30.11 in 10.0 mi NNW 5.8 mph - N/A   Clear
11:53 PM 37.0 °F 31.0 °F 8.1 °F 30% 30.11 in 10.0 mi NNE 8.1 mph - N/A   Clear